[[{"header":{"parameterUnit":"m.s-1","parameterCategory":2,"la1":30.2991,"la2":30.254,"lo1":-89.0895,"lo2":-89.0444,"dy":0.0017,"dx":0.0017,"nx":28,"ny":28,"refTime":"2025-08-21T21:00:00:Z","depth":"0","parameterNumber":2,"parameterNumberName":"U-component_of_CURRENTS"},"data":[0,0,0,0,0,0,0,0,0,0,0,0,0,0,0,0,0,0,0,0,0,0,0,0,0,0,0,0,0,0,0,0,0,0,0,0,0,0,0,0,0,0,0,0,0,0,0,0,0,0,0,0,0,0,0,0,0,0,0.2367,0.2368,0,0.244,0.2441,0.2441,0.2454,0.2454,0.2454,0.2453,0.2447,0.2447,0.2447,0,0,0,0,0,0,0,0,0,0,0,0,0,0.2252,0.2254,0.2367,0.2368,0.2369,0.244,0.2441,0.2442,0.2454,0.2454,0.2453,0.2453,0.2447,0.2447,0.2447,0,0,0,0,0,0,0,0,0,0,0,0,0,0.2309,0.2254,0.2367,0.2386,0.2388,0.244,0.2441,0.2442,0.2455,0.2454,0.2453,0.2453,0.2447,0.2447,0.2447,0.2463,0,0,0.2449,0.2449,0,0,0,0,0,0,0,0,0.2306,0.2313,0.2382,0.2385,0.2387,0.2439,0.2398,0.2446,0.2455,0.2427,0.2453,0.2452,0.2439,0.244,0.2453,0.2462,0.2462,0.2449,0.2449,0.2449,0.2449,0,0,0,0,0,0,0,0.2302,0.231,0.2394,0.2383,0.2387,0.2395,0.2402,0.2407,0.2433,0.243,0.2431,0.2443,0.2439,0.2453,0.2453,0.2462,0.2449,0.2449,0.2449,0.2449,0.249,0.2491,0,0,0,0,0,0,0.2297,0.2307,0.2392,0.2397,0.2346,0.2398,0.2405,0.2422,0.2435,0.2437,0.2443,0.2443,0.2453,0.2453,0.2453,0.2474,0.2449,0.2449,0.245,0.2489,0.249,0.2491,0,0,0,0,0,0,0.2295,0.2304,0.2389,0.2354,0.2366,0.24,0.2418,0.2423,0.2438,0.2446,0.2446,0.2452,0.2452,0.2452,0.2463,0.2473,0.2449,0.245,0.2488,0.2489,0.249,0.2514,0,0,0,0,0,0,0.2291,0.2303,0.2311,0.2354,0.2368,0.2423,0.2419,0.2425,0.2447,0.2447,0.2454,0.2453,0.2452,0.2463,0.2463,0.2473,0.245,0.2487,0.2488,0.249,0.2512,0.2516,0.2519,0,0,0,0,0,0.2287,0.23,0.2311,0.2321,0.2379,0.2423,0.2431,0.2452,0.2448,0.246,0.2464,0.2453,0.2473,0.2464,0.2464,0.2475,0.2486,0.2488,0.249,0.251,0.2515,0.2519,0,0,0,0,0,0,0.2251,0.2305,0.2317,0.2345,0.2383,0.2426,0.2441,0.2454,0.2469,0.2465,0.2464,0.2465,0.2479,0.2476,0.2465,0.2492,0.2478,0.248,0.2493,0.2497,0.2501,0.249,0.245,0,0,0,0,0,0.2249,0.2275,0.2325,0.2347,0.2367,0.2404,0.2423,0.244,0.2462,0.2469,0.2473,0.2478,0.249,0.2491,0.2501,0.2513,0.2535,0.2521,0.2524,0.2527,0.252,0.2536,0.254,0.2497,0.2497,0.2497,0,0,0.2239,0.2274,0.2287,0.2342,0.2372,0.2404,0.2414,0.2447,0.2467,0.2464,0.2483,0.2491,0.2498,0.2516,0.2521,0.2511,0.2568,0.253,0.2532,0.2523,0.2538,0.2542,0.2546,0.2498,0.2498,0.2498,0,0,0.224,0.2268,0.2293,0.2328,0.2378,0.2404,0.2414,0.2458,0.2471,0.2496,0.2499,0.251,0.2528,0.2535,0.254,0.2567,0.2588,0.2575,0.2579,0.2596,0.2599,0.2602,0.2707,0.2718,0.2573,0.2573,0.2573,0,0.2226,0.2267,0.2305,0.2341,0.2366,0.2403,0.2431,0.2455,0.2494,0.2502,0.2501,0.2534,0.2535,0.2558,0.2568,0.2573,0.2615,0.2562,0.2599,0.2602,0.2605,0.271,0.2723,0.2575,0.2574,0.2574,0.2574,0,0.225,0.2282,0.2301,0.2356,0.2386,0.2419,0.246,0.2482,0.2497,0.2516,0.2542,0.2554,0.2572,0.2579,0.258,0.2604,0.2646,0.2605,0.2586,0.261,0.2722,0.2735,0.2577,0.2576,0.2576,0.2575,0,0,0.2221,0.2301,0.2307,0.2334,0.2397,0.2425,0.2458,0.2498,0.2516,0.2543,0.2565,0.2584,0.2592,0.2599,0.2608,0.2616,0.2693,0.2618,0.2619,0.2721,0.2804,0.2988,0.3021,0.2655,0.2655,0.2656,0.2901,0,0.2229,0.2288,0.2325,0.2372,0.2406,0.2445,0.2471,0.2507,0.2536,0.2566,0.258,0.2605,0.2602,0.2615,0.2626,0.2672,0.2716,0.2636,0.2766,0.2772,0.2928,0.3036,0.3051,0.3281,0.2913,0.2916,0.2917,0,0.2242,0.2282,0.2327,0.2385,0.2402,0.2426,0.2474,0.2504,0.255,0.2571,0.26,0.2622,0.267,0.264,0.275,0.2703,0.2757,0.2788,0.2797,0.2959,0.2978,0.3183,0.3318,0.3168,0.2937,0.2935,0.2934,0,0.2212,0.2282,0.2314,0.2337,0.2405,0.2419,0.2448,0.2497,0.2529,0.2576,0.2617,0.2661,0.2722,0.2755,0.2879,0.2802,0.3022,0.2917,0.3149,0.3165,0.3199,0.3218,0.3194,0.2981,0.298,0.2979,0.2979,0,0.2211,0.2237,0.23,0.2319,0.2341,0.2397,0.2424,0.2458,0.2522,0.2582,0.2619,0.2709,0.2745,0.2888,0.293,0.3159,0.3084,0.3197,0.324,0.3221,0.3238,0.3124,0.3029,0.2989,0.2986,0.2985,0.2983,0,0.2175,0.2222,0.2255,0.2314,0.2328,0.234,0.2405,0.2436,0.2509,0.2597,0.2621,0.2775,0.3001,0.3117,0.3246,0.3291,0.3368,0.3515,0.3559,0.3603,0.3633,0.3542,0.3501,0.3394,0.3779,0.3785,0.379,0,0.2164,0.2179,0.2228,0.2244,0.2268,0.23,0.2324,0.2399,0.2454,0.2664,0.2718,0.2979,0.32,0.3549,0.368,0.3886,0.3651,0.3978,0.3801,0.3693,0.3618,0.339,0.3279,0.3881,0.3886,0.389,0.3894,0,0.2135,0.2147,0.2177,0.2217,0.2241,0.2267,0.2325,0.2378,0.2509,0.264,0.2898,0.3106,0.3515,0.3771,0.4077,0.4173,0.3808,0.4079,0.39,0.3675,0.3483,0.3383,0.3713,0.3933,0.3929,0.3926,0.3924,0.3923,0.2109,0.2125,0.2178,0.2215,0.2235,0.2286,0.2312,0.2421,0.2566,0.2796,0.2998,0.3317,0.3703,0.4167,0.4238,0.4339,0.4144,0.4202,0.4108,0.3891,0.3744,0.4243,0.4541,0.4541,0.454,0.454,0.454,0,0.214,0.2177,0.2188,0.2246,0.2265,0.2281,0.2354,0.2403,0.259,0.2852,0.3105,0.3569,0.3908,0.4162,0.441,0.4306,0.4061,0.4195,0.3779,0.3667,0.4082,0.404,0.4322,0.4322,0.4322,0.4322,0.4322,0.4322,0.217,0.2217,0.2236,0.2291,0.2314,0.2334,0.2376,0.2461,0.2624,0.2949,0.321,0.3454,0.3832,0.4209,0.424,0.417,0.3721,0.3718,0.3525,0.3733,0.3719,0.3706,0.3638,0.3831,0.3831,0.2995,0.2988,0.2984]},{"header":{"parameterUnit":"m.s-1","parameterCategory":2,"la1":30.2991,"la2":30.254,"lo1":-89.0895,"lo2":-89.0444,"dy":0.0017,"dx":0.0017,"nx":28,"ny":28,"refTime":"2025-08-21T21:00:00:Z","depth":"0","parameterNumber":3,"parameterNumberName":"V-component_of_CURRENTS"},"data":[0,0,0,0,0,0,0,0,0,0,0,0,0,0,0,0,0,0,0,0,0,0,0,0,0,0,0,0,0,0,0,0,0,0,0,0,0,0,0,0,0,0,0,0,0,0,0,0,0,0,0,0,0,0,0,0,0,0,-0.015,-0.0151,0,-0.0246,-0.0247,-0.0248,-0.0301,-0.0301,-0.0301,-0.0301,-0.0425,-0.0429,-0.0432,0,0,0,0,0,0,0,0,0,0,0,0,0,-0.0075,-0.0076,-0.015,-0.0151,-0.0152,-0.0245,-0.0247,-0.0248,-0.0301,-0.0301,-0.0301,-0.0301,-0.0424,-0.0428,-0.0432,0,0,0,0,0,0,0,0,0,0,0,0,0,-0.0134,-0.0076,-0.015,-0.0188,-0.0193,-0.0245,-0.0247,-0.0249,-0.0301,-0.0301,-0.0301,-0.0301,-0.0423,-0.0428,-0.0433,-0.0464,0,0,-0.0448,-0.045,0,0,0,0,0,0,0,0,-0.0131,-0.0137,-0.0182,-0.0186,-0.0191,-0.026,-0.0266,-0.0322,-0.0301,-0.0262,-0.0301,-0.0301,-0.0371,-0.0381,-0.0401,-0.047,-0.0475,-0.0448,-0.0451,-0.0454,-0.0455,0,0,0,0,0,0,0,-0.0127,-0.0134,-0.019,-0.0183,-0.0188,-0.0222,-0.023,-0.0277,-0.0318,-0.0265,-0.0269,-0.0276,-0.0374,-0.0396,-0.0404,-0.0477,-0.0448,-0.0453,-0.0456,-0.0458,-0.0599,-0.0599,0,0,0,0,0,0,-0.0108,-0.013,-0.0187,-0.0193,-0.0158,-0.0223,-0.0232,-0.0239,-0.0317,-0.0328,-0.0276,-0.0278,-0.0387,-0.0398,-0.0409,-0.0471,-0.0454,-0.0458,-0.0461,-0.0598,-0.0599,-0.06,0,0,0,0,0,0,-0.0106,-0.0112,-0.0183,-0.0162,-0.0173,-0.0223,-0.0232,-0.0241,-0.0261,-0.0324,-0.0336,-0.0286,-0.0388,-0.0402,-0.0453,-0.0475,-0.046,-0.0465,-0.0597,-0.0598,-0.0599,-0.0582,0,0,0,0,0,0,-0.0104,-0.0111,-0.0111,-0.016,-0.0173,-0.0213,-0.0232,-0.0243,-0.0265,-0.0269,-0.0337,-0.0349,-0.0389,-0.0445,-0.0458,-0.0482,-0.0469,-0.0596,-0.0597,-0.0599,-0.0582,-0.0583,-0.0583,0,0,0,0,0,-0.0101,-0.0102,-0.0111,-0.0118,-0.0172,-0.0213,-0.0224,-0.0261,-0.0265,-0.0278,-0.0322,-0.0346,-0.0463,-0.045,-0.0465,-0.0491,-0.0595,-0.0597,-0.0599,-0.0582,-0.0583,-0.0583,0,0,0,0,0,0,-0.0069,-0.0109,-0.0119,-0.0132,-0.0168,-0.0222,-0.0236,-0.0256,-0.0301,-0.0303,-0.0357,-0.0372,-0.0426,-0.0457,-0.0441,-0.0534,-0.0533,-0.0538,-0.0515,-0.0517,-0.0518,-0.0523,-0.0473,0,0,0,0,0,-0.006,-0.0073,-0.0115,-0.0126,-0.014,-0.0185,-0.0205,-0.023,-0.0274,-0.0293,-0.034,-0.0392,-0.0446,-0.0477,-0.0526,-0.0577,-0.0588,-0.0603,-0.0604,-0.0604,-0.0618,-0.0656,-0.0661,-0.0605,-0.0605,-0.0605,0,0,-0.005,-0.0073,-0.0081,-0.012,-0.015,-0.0185,-0.0198,-0.0227,-0.0262,-0.03,-0.0357,-0.0394,-0.0458,-0.0517,-0.0544,-0.0546,-0.0617,-0.0606,-0.0606,-0.0621,-0.0658,-0.0664,-0.0669,-0.0606,-0.0606,-0.0606,0,0,-0.005,-0.0057,-0.0076,-0.0104,-0.0145,-0.0176,-0.018,-0.0232,-0.0259,-0.0312,-0.035,-0.0399,-0.0477,-0.0533,-0.057,-0.0603,-0.0616,-0.0614,-0.0631,-0.0667,-0.0672,-0.0677,-0.0655,-0.0658,-0.0619,-0.0619,-0.0619,0,-0.0037,-0.0067,-0.0087,-0.0117,-0.0142,-0.017,-0.0201,-0.0237,-0.03,-0.0325,-0.0327,-0.0446,-0.0492,-0.0578,-0.0592,-0.0608,-0.0607,-0.0621,-0.0668,-0.0673,-0.0678,-0.0655,-0.0658,-0.0619,-0.0619,-0.0619,-0.0619,0,-0.0062,-0.0085,-0.0096,-0.0145,-0.0172,-0.0199,-0.0246,-0.0275,-0.03,-0.0339,-0.0411,-0.0473,-0.0541,-0.0566,-0.0595,-0.0661,-0.0638,-0.0657,-0.0662,-0.0682,-0.0656,-0.066,-0.0618,-0.0618,-0.0618,-0.0618,0,0,-0.0043,-0.0103,-0.0108,-0.0131,-0.0187,-0.021,-0.026,-0.0316,-0.0334,-0.0403,-0.0434,-0.0546,-0.0561,-0.0604,-0.0643,-0.0687,-0.0706,-0.0687,-0.069,-0.0658,-0.0741,-0.0633,-0.0626,-0.0731,-0.0733,-0.0734,-0.0692,0,-0.006,-0.0112,-0.0142,-0.0189,-0.0218,-0.0253,-0.029,-0.0338,-0.0371,-0.0401,-0.0477,-0.0515,-0.0581,-0.059,-0.0656,-0.068,-0.0723,-0.0713,-0.0734,-0.0733,-0.063,-0.063,-0.0551,-0.05,-0.0696,-0.0696,-0.0697,0,-0.0085,-0.0114,-0.0159,-0.0204,-0.0217,-0.0243,-0.0285,-0.0322,-0.0373,-0.0389,-0.0455,-0.0487,-0.0562,-0.0596,-0.0696,-0.0681,-0.0723,-0.0751,-0.075,-0.0666,-0.0634,-0.0521,-0.05,-0.075,-0.0703,-0.0702,-0.0702,0,-0.0066,-0.0126,-0.0157,-0.0176,-0.0229,-0.0246,-0.027,-0.0318,-0.031,-0.0363,-0.0323,-0.0457,-0.0436,-0.0566,-0.061,-0.0658,-0.0673,-0.0742,-0.0694,-0.0684,-0.0631,-0.0613,-0.0852,-0.0833,-0.0834,-0.0834,-0.0834,0,-0.0076,-0.0099,-0.0143,-0.0158,-0.0166,-0.0218,-0.0212,-0.0249,-0.0249,-0.0177,-0.0299,-0.0226,-0.0424,-0.0441,-0.0568,-0.0595,-0.064,-0.0692,-0.0677,-0.0615,-0.0598,-0.0823,-0.0971,-0.0832,-0.0832,-0.0833,-0.0833,0,-0.0048,-0.0089,-0.011,-0.0152,-0.0155,-0.0154,-0.0134,-0.0109,-0.0122,-0.0016,-0.0006,-0.0028,-0.0022,-0.019,-0.0317,-0.0458,-0.0646,-0.0555,-0.043,-0.0403,-0.063,-0.0776,-0.0939,-0.1045,-0.0534,-0.0531,-0.0528,0,-0.0036,-0.0049,-0.0073,-0.0045,-0.0054,-0.0046,-0.0012,-0.0042,0.0034,0.0157,0.0254,0.0283,0.0406,0.0256,-0.0003,-0.0194,-0.047,-0.0298,-0.0414,-0.0628,-0.0784,-0.0892,-0.0981,-0.0322,-0.0318,-0.0315,-0.0312,0,0.0018,0.001,0.0014,0.0071,0.0107,0.015,0.0215,0.0307,0.0359,0.0506,0.0757,0.087,0.0757,0.0648,0.0346,0.0155,-0.0457,-0.0238,-0.0526,-0.0691,-0.0763,-0.0858,-0.0335,-0.0284,-0.0287,-0.0289,-0.0291,-0.0292,0.01,0.0135,0.0172,0.0235,0.0287,0.0419,0.0528,0.0665,0.0877,0.1191,0.1211,0.1497,0.1187,0.0823,0.0486,-0.0135,-0.0212,-0.036,-0.0526,-0.0621,-0.0727,-0.0101,0.0003,0.0002,0.0001,-0.0,-0.0001,0,0.0253,0.03,0.0355,0.0468,0.0592,0.0561,0.0751,0.0921,0.1281,0.1572,0.1847,0.1949,0.1525,0.096,0.0139,-0.035,-0.0601,-0.0661,-0.0879,-0.0967,-0.0458,-0.0456,-0.0366,-0.0366,-0.0365,-0.0365,-0.0365,-0.0365,0.0357,0.0469,0.0498,0.0753,0.0841,0.1046,0.1188,0.1445,0.1695,0.2172,0.2433,0.2579,0.2125,0.0556,-0.0555,-0.0808,-0.1252,-0.1257,-0.1524,-0.127,-0.1258,-0.1247,-0.1286,-0.1371,-0.1372,-0.1959,-0.1965,-0.197]}],[{"header":{"parameterUnit":"m.s-1","parameterCategory":2,"la1":30.2991,"la2":30.254,"lo1":-89.0895,"lo2":-89.0444,"dy":0.0017,"dx":0.0017,"nx":28,"ny":28,"refTime":"2025-08-21T21:00:00:Z","depth":"2","parameterNumber":2,"parameterNumberName":"U-component_of_CURRENTS"},"data":[0,0,0,0,0,0,0,0,0,0,0,0,0,0,0,0,0,0,0,0,0,0,0,0,0,0,0,0,0,0,0,0,0,0,0,0,0,0,0,0,0,0,0,0,0,0,0,0,0,0,0,0,0,0,0,0,0,0,0.1998,0.1999,0,0.2049,0.2049,0.2049,0.2064,0.2064,0.2065,0.2065,0.2121,0.2122,0.2124,0,0,0,0,0,0,0,0,0,0,0,0,0,0.1892,0.1893,0.1998,0.1999,0.2,0.2049,0.2049,0.2049,0.2064,0.2064,0.2065,0.2065,0.2121,0.2122,0.2124,0,0,0,0,0,0,0,0,0,0,0,0,0,0.1934,0.1894,0.1997,0.2018,0.2021,0.2049,0.2049,0.2049,0.2064,0.2064,0.2065,0.2065,0.212,0.2122,0.2124,0.2125,0,0,0.2129,0.213,0,0,0,0,0,0,0,0,0.1931,0.1937,0.2014,0.2017,0.202,0.2056,0.2032,0.2077,0.2064,0.2041,0.2065,0.2065,0.2104,0.2107,0.2106,0.2128,0.213,0.213,0.2131,0.2131,0.2132,0,0,0,0,0,0,0,0.1928,0.1935,0.2011,0.2015,0.2019,0.2018,0.2024,0.204,0.2064,0.2043,0.2046,0.2061,0.2105,0.2104,0.2108,0.2131,0.213,0.2131,0.2132,0.2133,0.2255,0.2257,0,0,0,0,0,0,0.1936,0.1932,0.201,0.2014,0.1983,0.202,0.2026,0.2039,0.2064,0.207,0.2061,0.2062,0.2101,0.2106,0.211,0.2193,0.2131,0.2133,0.2134,0.2253,0.2256,0.2258,0,0,0,0,0,0,0.1933,0.1942,0.2008,0.1979,0.1988,0.2022,0.2035,0.204,0.2055,0.2079,0.2084,0.2074,0.2102,0.2107,0.2151,0.2193,0.2134,0.2136,0.225,0.2254,0.2257,0.2309,0,0,0,0,0,0,0.193,0.1941,0.1949,0.198,0.1991,0.204,0.2036,0.2041,0.2066,0.2068,0.2092,0.2096,0.2103,0.2148,0.2153,0.2194,0.2137,0.2248,0.2252,0.2256,0.2305,0.2314,0.2322,0,0,0,0,0,0.1926,0.194,0.1949,0.1959,0.2002,0.2042,0.2047,0.2068,0.2066,0.208,0.2103,0.2096,0.2178,0.2151,0.2156,0.2199,0.2246,0.2251,0.2255,0.2301,0.2312,0.2321,0,0,0,0,0,0,0.1897,0.1945,0.1955,0.1982,0.2018,0.2047,0.2063,0.2074,0.2099,0.2108,0.2115,0.2123,0.2183,0.2182,0.2153,0.2249,0.2214,0.222,0.2247,0.2258,0.2266,0.2261,0.2138,0,0,0,0,0,0.1896,0.1927,0.1964,0.1993,0.2006,0.2034,0.2051,0.2074,0.2103,0.2114,0.2148,0.2178,0.2203,0.2222,0.2254,0.2294,0.2305,0.233,0.2338,0.2345,0.2346,0.238,0.239,0.2274,0.2274,0.2274,0,0,0.1893,0.1928,0.1943,0.199,0.2013,0.2061,0.2044,0.2086,0.2133,0.2117,0.2197,0.2212,0.2223,0.2281,0.2307,0.2285,0.2394,0.2351,0.2357,0.2354,0.2386,0.2397,0.2407,0.2277,0.2277,0.2276,0,0,0.1915,0.1933,0.1965,0.2007,0.2062,0.2084,0.21,0.2154,0.2176,0.2241,0.2249,0.2287,0.234,0.2359,0.2366,0.2437,0.2441,0.2457,0.249,0.2523,0.2532,0.254,0.2606,0.262,0.2456,0.2456,0.2457,0,0.1914,0.1964,0.1981,0.2036,0.2077,0.21,0.215,0.2181,0.2255,0.2275,0.2281,0.2364,0.2376,0.2421,0.2449,0.2456,0.2483,0.2446,0.2532,0.254,0.2547,0.2612,0.2626,0.246,0.2459,0.2459,0.2459,0,0.1971,0.2016,0.2042,0.2122,0.216,0.2213,0.2262,0.2308,0.2339,0.2373,0.2438,0.2459,0.2498,0.2517,0.25,0.2564,0.2573,0.254,0.25,0.2562,0.2628,0.2641,0.2464,0.2463,0.2462,0.2461,0,0,0.1977,0.2059,0.2081,0.2114,0.2212,0.2244,0.2321,0.2379,0.2415,0.2487,0.2534,0.2583,0.2586,0.2595,0.2593,0.2619,0.2705,0.2603,0.2603,0.2658,0.281,0.2782,0.2794,0.2683,0.2684,0.2686,0.2848,0,0.2023,0.211,0.2156,0.2249,0.2285,0.2338,0.2396,0.2457,0.2502,0.2562,0.2579,0.2626,0.2617,0.2627,0.2661,0.2688,0.2738,0.2666,0.275,0.2754,0.2711,0.2807,0.2576,0.2696,0.2861,0.2864,0.2865,0,0.2078,0.2127,0.2202,0.2278,0.2299,0.2356,0.2432,0.2493,0.2567,0.2597,0.2649,0.2673,0.2734,0.2701,0.2806,0.2761,0.2797,0.2818,0.2824,0.2781,0.2749,0.2655,0.2714,0.2888,0.2886,0.2884,0.2883,0,0.2056,0.2165,0.2211,0.2252,0.234,0.2369,0.2416,0.2495,0.2541,0.2613,0.266,0.2729,0.2776,0.2823,0.2906,0.2849,0.303,0.2949,0.2972,0.2972,0.2782,0.2762,0.3028,0.3028,0.3027,0.3027,0.3026,0,0.2087,0.2128,0.2195,0.2227,0.2271,0.2343,0.2396,0.2448,0.2536,0.2607,0.2666,0.2752,0.2806,0.2922,0.2954,0.3044,0.3082,0.3006,0.3012,0.28,0.278,0.2932,0.2919,0.3033,0.3032,0.303,0.3029,0,0.2047,0.2102,0.2146,0.2229,0.2253,0.2278,0.2373,0.2412,0.2505,0.2604,0.2631,0.2791,0.2949,0.3045,0.3157,0.3118,0.3187,0.3211,0.2986,0.296,0.3089,0.3077,0.321,0.321,0.321,0.3211,0.3211,0,0.2023,0.2041,0.2121,0.214,0.2171,0.2223,0.2256,0.2365,0.2424,0.2644,0.2691,0.2896,0.3003,0.3191,0.321,0.3281,0.3317,0.3064,0.2886,0.3116,0.3109,0.3096,0.3084,0.268,0.2676,0.2672,0.267,0,0.1966,0.1993,0.2027,0.2071,0.2106,0.2159,0.2227,0.228,0.2434,0.2541,0.2739,0.2844,0.3043,0.302,0.3113,0.3104,0.3017,0.2994,0.3311,0.2664,0.2627,0.2616,0.2619,0.2639,0.2642,0.2645,0.2646,0.2647,0.1906,0.1914,0.1964,0.2002,0.2045,0.2105,0.2133,0.2213,0.2324,0.2448,0.2639,0.2707,0.278,0.2801,0.2786,0.278,0.2943,0.2758,0.2764,0.2774,0.2678,0.2642,0.2643,0.2646,0.2648,0.2651,0.2653,0,0.184,0.1872,0.1897,0.1952,0.1973,0.2037,0.212,0.2104,0.2186,0.2305,0.2402,0.2275,0.2295,0.2416,0.2357,0.2346,0.2262,0.2252,0.2117,0.2151,0.2181,0.2047,0.1849,0.1846,0.1844,0.1841,0,0,0.1808,0.1815,0.1842,0.1873,0.1918,0.1939,0.1981,0.1946,0.1985,0.1949,0.1979,0.2128,0.2301,0.2023,0.2019,0.1931,0.2004,0.1855,0.2507,0.2382,0.2407,0.2497,0.2335,0,0,0,0,0]},{"header":{"parameterUnit":"m.s-1","parameterCategory":2,"la1":30.2991,"la2":30.254,"lo1":-89.0895,"lo2":-89.0444,"dy":0.0017,"dx":0.0017,"nx":28,"ny":28,"refTime":"2025-08-21T21:00:00:Z","depth":"2","parameterNumber":3,"parameterNumberName":"V-component_of_CURRENTS"},"data":[0,0,0,0,0,0,0,0,0,0,0,0,0,0,0,0,0,0,0,0,0,0,0,0,0,0,0,0,0,0,0,0,0,0,0,0,0,0,0,0,0,0,0,0,0,0,0,0,0,0,0,0,0,0,0,0,0,0,-0.0119,-0.0119,0,-0.0163,-0.0163,-0.0164,-0.0215,-0.0216,-0.0217,-0.0218,-0.0336,-0.0338,-0.034,0,0,0,0,0,0,0,0,0,0,0,0,0,-0.009,-0.0091,-0.0119,-0.0119,-0.012,-0.0163,-0.0163,-0.0164,-0.0215,-0.0216,-0.0217,-0.0218,-0.0335,-0.0338,-0.0341,0,0,0,0,0,0,0,0,0,0,0,0,0,-0.0115,-0.0091,-0.0119,-0.0151,-0.0154,-0.0162,-0.0163,-0.0164,-0.0215,-0.0216,-0.0218,-0.0219,-0.0334,-0.0338,-0.0341,-0.0338,0,0,-0.0352,-0.0353,0,0,0,0,0,0,0,0,-0.0113,-0.0116,-0.0146,-0.0149,-0.0153,-0.0185,-0.0196,-0.0226,-0.0215,-0.0192,-0.0218,-0.0219,-0.0292,-0.0299,-0.0303,-0.0344,-0.0349,-0.0352,-0.0354,-0.0356,-0.0357,0,0,0,0,0,0,0,-0.0112,-0.0114,-0.0136,-0.0146,-0.0151,-0.0167,-0.0172,-0.0202,-0.0235,-0.0194,-0.0198,-0.0203,-0.0294,-0.0299,-0.0306,-0.035,-0.0352,-0.0355,-0.0357,-0.0359,-0.0479,-0.048,0,0,0,0,0,0,-0.0105,-0.0112,-0.0134,-0.0137,-0.0136,-0.0167,-0.0172,-0.0173,-0.0233,-0.0243,-0.0202,-0.0205,-0.0292,-0.0302,-0.031,-0.0361,-0.0356,-0.0359,-0.0361,-0.0478,-0.048,-0.0481,0,0,0,0,0,0,-0.0104,-0.0106,-0.0133,-0.0126,-0.0131,-0.0166,-0.0167,-0.0173,-0.0185,-0.0239,-0.025,-0.0208,-0.0294,-0.0305,-0.0348,-0.0365,-0.0361,-0.0364,-0.0477,-0.0479,-0.048,-0.0431,0,0,0,0,0,0,-0.0103,-0.0106,-0.0102,-0.0126,-0.0131,-0.0135,-0.0166,-0.0173,-0.0186,-0.0191,-0.0248,-0.0259,-0.0296,-0.0342,-0.0351,-0.0369,-0.0367,-0.0476,-0.0478,-0.048,-0.0431,-0.0431,-0.043,0,0,0,0,0,-0.0102,-0.0085,-0.0102,-0.0105,-0.0126,-0.0134,-0.0138,-0.0167,-0.0185,-0.0184,-0.0231,-0.0258,-0.0363,-0.0345,-0.0356,-0.0375,-0.0475,-0.0477,-0.048,-0.0431,-0.0431,-0.043,0,0,0,0,0,0,-0.007,-0.009,-0.0108,-0.01,-0.0118,-0.0143,-0.0141,-0.0163,-0.0196,-0.0206,-0.0259,-0.0274,-0.0322,-0.0354,-0.0334,-0.042,-0.0428,-0.0433,-0.0388,-0.0388,-0.0387,-0.0367,-0.037,0,0,0,0,0,-0.0061,-0.0059,-0.0083,-0.0079,-0.0082,-0.0112,-0.0119,-0.0141,-0.0173,-0.0188,-0.0237,-0.0292,-0.0337,-0.0365,-0.0409,-0.0444,-0.0464,-0.047,-0.047,-0.0469,-0.0462,-0.0508,-0.051,-0.0489,-0.0489,-0.0489,0,0,-0.0049,-0.0061,-0.006,-0.0073,-0.0087,-0.0091,-0.0119,-0.0126,-0.0139,-0.0196,-0.0235,-0.0287,-0.0346,-0.0392,-0.0418,-0.0423,-0.0484,-0.0472,-0.047,-0.0464,-0.051,-0.0512,-0.0514,-0.049,-0.049,-0.049,0,0,-0.0015,-0.0031,-0.0014,-0.003,-0.005,-0.0071,-0.0072,-0.0107,-0.0128,-0.0167,-0.0219,-0.0276,-0.0347,-0.0393,-0.0423,-0.0445,-0.0477,-0.0472,-0.0454,-0.0498,-0.05,-0.0501,-0.0513,-0.0516,-0.0475,-0.0475,-0.0475,0,-0.0,0.0013,-0.001,-0.0005,-0.0015,-0.006,-0.0051,-0.0075,-0.0128,-0.0146,-0.0178,-0.0294,-0.0346,-0.0397,-0.0416,-0.0442,-0.0463,-0.0446,-0.0494,-0.0497,-0.0499,-0.0512,-0.0515,-0.0473,-0.0473,-0.0473,-0.0473,0,0.0042,0.0045,0.0054,0.0041,0.0028,0.0027,-0.0012,-0.0033,-0.0076,-0.0117,-0.0181,-0.0259,-0.0329,-0.0364,-0.0398,-0.0448,-0.0455,-0.0482,-0.0486,-0.0497,-0.0511,-0.0515,-0.047,-0.047,-0.0471,-0.0472,0,0,0.008,0.0087,0.0082,0.0091,0.005,0.0049,0.003,0.0004,-0.0006,-0.009,-0.0113,-0.0219,-0.0275,-0.0314,-0.0375,-0.0422,-0.046,-0.046,-0.0464,-0.0454,-0.0537,-0.0509,-0.0512,-0.0498,-0.0499,-0.05,-0.0532,0,0.0116,0.0153,0.0131,0.0145,0.0164,0.0113,0.0101,0.0061,0.0013,-0.0027,-0.0118,-0.0174,-0.0252,-0.0289,-0.0352,-0.0429,-0.0474,-0.0447,-0.0544,-0.0546,-0.0505,-0.0517,-0.0501,-0.0527,-0.0537,-0.0538,-0.0539,0,0.0155,0.0176,0.0208,0.0216,0.0217,0.0201,0.0177,0.0158,0.0091,0.0054,-0.0028,-0.0099,-0.0187,-0.0249,-0.0388,-0.0369,-0.0451,-0.0513,-0.0516,-0.051,-0.0528,-0.0525,-0.0536,-0.0547,-0.0547,-0.0546,-0.0546,0,0.0204,0.0225,0.0256,0.0251,0.0247,0.0241,0.0224,0.0171,0.0175,0.0095,0.0089,-0.0039,-0.0082,-0.0219,-0.035,-0.0378,-0.048,-0.0533,-0.0581,-0.0579,-0.0593,-0.059,-0.0628,-0.0628,-0.0628,-0.0628,-0.0628,0,0.0249,0.0271,0.0279,0.0291,0.032,0.0286,0.0296,0.0264,0.0235,0.026,0.0124,0.0134,-0.0078,-0.0159,-0.0311,-0.044,-0.0452,-0.0571,-0.059,-0.0574,-0.0569,-0.0615,-0.0613,-0.0629,-0.0629,-0.0629,-0.0629,0,0.0292,0.0299,0.0339,0.0344,0.0344,0.0354,0.0359,0.0376,0.0333,0.0369,0.0354,0.0266,0.0167,-0.0023,-0.0211,-0.0357,-0.0503,-0.0546,-0.0492,-0.0505,-0.0586,-0.0582,-0.0622,-0.0621,-0.0621,-0.062,-0.062,0,0.0321,0.0346,0.0375,0.0399,0.0395,0.0412,0.0434,0.0416,0.0455,0.0477,0.0517,0.0437,0.0411,0.0146,-0.013,-0.0379,-0.0427,-0.052,-0.0584,-0.0573,-0.0588,-0.0584,-0.058,-0.0583,-0.0582,-0.0581,-0.0581,0,0.0365,0.0366,0.0395,0.0451,0.0477,0.0535,0.0572,0.0635,0.0654,0.0716,0.0803,0.0786,0.0529,0.028,-0.0074,-0.0251,-0.0489,-0.0516,-0.0527,-0.0577,-0.0537,-0.0551,-0.0549,-0.0576,-0.0577,-0.0577,-0.0577,-0.0578,0.0376,0.0408,0.0441,0.0493,0.0548,0.0647,0.072,0.0809,0.0926,0.1025,0.1008,0.0986,0.0666,0.0216,-0.008,-0.0409,-0.0424,-0.0559,-0.0561,-0.0564,-0.0543,-0.0504,-0.0532,-0.0532,-0.0532,-0.0532,-0.0533,0,0.0383,0.0422,0.0482,0.0555,0.0639,0.0662,0.0809,0.0907,0.1089,0.1168,0.1225,0.0954,0.0651,0.0306,-0.0182,-0.0477,-0.0528,-0.0554,-0.0567,-0.0569,-0.0572,-0.0553,-0.0544,-0.0545,-0.0545,-0.0546,0,0,0.0381,0.0434,0.0475,0.0605,0.0676,0.0822,0.0927,0.1098,0.12,0.1297,0.1284,0.116,0.0749,0.0401,-0.0005,-0.0266,-0.0346,-0.0316,-0.0281,-0.0252,-0.0251,-0.0555,-0.0525,0,0,0,0,0]}],[{"header":{"parameterUnit":"m.s-1","parameterCategory":2,"la1":30.2991,"la2":30.254,"lo1":-89.0895,"lo2":-89.0444,"dy":0.0017,"dx":0.0017,"nx":28,"ny":28,"refTime":"2025-08-21T21:00:00:Z","depth":"4","parameterNumber":2,"parameterNumberName":"U-component_of_CURRENTS"},"data":[0,0,0,0,0,0,0,0,0,0,0,0,0,0,0,0,0,0,0,0,0,0,0,0,0,0,0,0,0,0,0,0,0,0,0,0,0,0,0,0,0,0,0,0,0,0,0,0,0,0,0,0,0,0,0,0,0,0,0.1127,0.1128,0,0.1166,0.1166,0.1166,0.1211,0.1212,0.1213,0.1214,0.1272,0.1273,0.1274,0,0,0,0,0,0,0,0,0,0,0,0,0,0.1057,0.1058,0.1127,0.1128,0.1128,0.1166,0.1166,0.1166,0.1211,0.1212,0.1213,0.1214,0.1272,0.1273,0.1274,0,0,0,0,0,0,0,0,0,0,0,0,0,0.1089,0.1059,0.1127,0.1157,0.116,0.1166,0.1166,0.1166,0.1211,0.1212,0.1214,0.1215,0.1272,0.1273,0.1274,0.1253,0,0,0.1277,0.1278,0,0,0,0,0,0,0,0,0.1087,0.1091,0.1152,0.1155,0.1159,0.1187,0.1163,0.1197,0.1211,0.1189,0.1214,0.1216,0.1246,0.125,0.125,0.1256,0.1258,0.1277,0.1278,0.1278,0.1279,0,0,0,0,0,0,0,0.1085,0.1089,0.114,0.1153,0.1157,0.1157,0.1163,0.1169,0.1208,0.1191,0.1195,0.1203,0.1248,0.1249,0.1252,0.1259,0.1277,0.1278,0.1279,0.1279,0.1352,0.1354,0,0,0,0,0,0,0.1085,0.1087,0.1139,0.1141,0.1128,0.1158,0.1164,0.1175,0.1208,0.1215,0.1202,0.1205,0.1246,0.1251,0.1254,0.1328,0.1278,0.1279,0.128,0.1351,0.1353,0.1354,0,0,0,0,0,0,0.1084,0.1089,0.1137,0.1117,0.1123,0.1158,0.1169,0.1175,0.1206,0.1216,0.1223,0.1231,0.1248,0.1253,0.1292,0.1327,0.128,0.1281,0.135,0.1352,0.1353,0.1414,0,0,0,0,0,0,0.1081,0.1089,0.1103,0.1117,0.1125,0.1161,0.1168,0.1175,0.1208,0.1213,0.1243,0.1248,0.1249,0.1291,0.1294,0.1328,0.1282,0.1348,0.135,0.1353,0.1411,0.1418,0.1425,0,0,0,0,0,0.1079,0.109,0.1104,0.1111,0.1142,0.1162,0.1166,0.1192,0.1208,0.1225,0.1252,0.1248,0.1308,0.1293,0.1296,0.1331,0.1347,0.135,0.1353,0.1408,0.1417,0.1424,0,0,0,0,0,0,0.1069,0.1097,0.1112,0.1133,0.1157,0.1171,0.119,0.1206,0.1238,0.1253,0.1262,0.1269,0.1315,0.1312,0.1295,0.1359,0.1328,0.1332,0.1369,0.1378,0.1384,0.1387,0.1283,0,0,0,0,0,0.1072,0.1092,0.1116,0.1137,0.1151,0.1175,0.119,0.1211,0.1236,0.1252,0.1272,0.1297,0.1322,0.1343,0.1356,0.139,0.1396,0.1415,0.1422,0.1428,0.1433,0.1464,0.1475,0.1364,0.1364,0.1364,0,0,0.1074,0.1093,0.1105,0.1137,0.1157,0.1177,0.1188,0.1221,0.1248,0.1252,0.1299,0.132,0.1335,0.1377,0.1398,0.1385,0.1467,0.1432,0.1437,0.1438,0.1468,0.1479,0.1489,0.1366,0.1365,0.1365,0,0,0.1076,0.1106,0.112,0.1142,0.1181,0.1196,0.1212,0.1244,0.1275,0.1315,0.1331,0.1377,0.1405,0.1432,0.1446,0.1497,0.1499,0.1506,0.155,0.1582,0.1591,0.1599,0.1639,0.165,0.1514,0.1514,0.1515,0,0.1078,0.1099,0.1127,0.1146,0.1171,0.1207,0.123,0.1258,0.1302,0.1336,0.134,0.1416,0.143,0.1492,0.1516,0.1514,0.1534,0.1518,0.1591,0.1599,0.1606,0.1645,0.1657,0.1518,0.1517,0.1517,0.1517,0,0.1082,0.1109,0.1122,0.1159,0.1189,0.1217,0.126,0.13,0.1341,0.1374,0.1451,0.1479,0.1531,0.1544,0.1548,0.1618,0.1617,0.1592,0.157,0.1621,0.1659,0.167,0.1522,0.1521,0.152,0.1519,0,0,0.1051,0.1113,0.1118,0.1144,0.1203,0.1225,0.1281,0.1342,0.139,0.1446,0.1512,0.157,0.1607,0.1625,0.1646,0.1676,0.1753,0.1666,0.1666,0.1706,0.1839,0.1725,0.1726,0.1745,0.1747,0.1748,0.1851,0,0.1047,0.1085,0.112,0.1163,0.1189,0.1249,0.1295,0.1361,0.1425,0.1495,0.156,0.1628,0.1633,0.1676,0.1711,0.1741,0.1783,0.1728,0.1782,0.1784,0.1676,0.1734,0.1754,0.1859,0.1862,0.1864,0.1865,0,0.1029,0.1063,0.1104,0.1178,0.1195,0.1231,0.1327,0.1379,0.1487,0.1538,0.163,0.1684,0.1776,0.1753,0.1849,0.1819,0.1842,0.1852,0.1856,0.1732,0.1689,0.1792,0.1885,0.1883,0.1882,0.188,0.1879,0,0.0984,0.1049,0.1086,0.111,0.1193,0.1238,0.1298,0.1401,0.1458,0.1587,0.1649,0.1751,0.1824,0.1866,0.1909,0.1896,0.1984,0.1964,0.1887,0.1881,0.1925,0.1915,0.2023,0.2023,0.2023,0.2023,0.2022,0,0.0954,0.0982,0.1074,0.1091,0.1147,0.1226,0.1303,0.1375,0.1488,0.1557,0.1684,0.1753,0.1855,0.1921,0.1938,0.1946,0.2017,0.1907,0.1898,0.1951,0.1942,0.1934,0.1922,0.2026,0.2026,0.2025,0.2024,0,0.0887,0.0947,0.0988,0.1086,0.1124,0.117,0.1296,0.1348,0.1473,0.1571,0.1623,0.1782,0.1883,0.1954,0.2026,0.1981,0.1991,0.1971,0.204,0.2031,0.187,0.1861,0.1921,0.1917,0.1915,0.1912,0.1911,0,0.0853,0.0867,0.0967,0.1003,0.1051,0.1138,0.1193,0.1322,0.1381,0.1569,0.1606,0.1768,0.1857,0.189,0.1957,0.1996,0.1967,0.196,0.1903,0.1874,0.186,0.1855,0.1849,0.1906,0.1906,0.1905,0.1904,0,0.0775,0.0815,0.0851,0.093,0.0994,0.1058,0.1158,0.119,0.1338,0.1461,0.1569,0.1651,0.1763,0.1837,0.1872,0.1886,0.1955,0.1932,0.1938,0.1884,0.1857,0.1845,0.1843,0.1895,0.1896,0.1897,0.1898,0,0.0711,0.0718,0.0778,0.0843,0.0918,0.0968,0.1032,0.1121,0.1198,0.1405,0.143,0.1606,0.1738,0.1781,0.1805,0.1819,0.1809,0.1743,0.1758,0.177,0.1669,0.1609,0.1574,0,0,0,0,0,0.0648,0.0654,0.0695,0.0759,0.0832,0.0885,0.1,0.1069,0.1211,0.1251,0.134,0.1441,0.1541,0.1632,0.1623,0.1741,0.1801,0.172,0.1728,0.1843,0.1854,0.1747,0,0,0,0,0,0,0.0604,0.0629,0.0654,0.0677,0.0713,0.0784,0.0856,0.0957,0.0997,0.1153,0.1226,0.1342,0.1468,0.1529,0.1591,0.1614,0.1588,0.182,0.1816,0.1836,0.1846,0.1855,0.1749,0,0,0,0,0]},{"header":{"parameterUnit":"m.s-1","parameterCategory":2,"la1":30.2991,"la2":30.254,"lo1":-89.0895,"lo2":-89.0444,"dy":0.0017,"dx":0.0017,"nx":28,"ny":28,"refTime":"2025-08-21T21:00:00:Z","depth":"4","parameterNumber":3,"parameterNumberName":"V-component_of_CURRENTS"},"data":[0,0,0,0,0,0,0,0,0,0,0,0,0,0,0,0,0,0,0,0,0,0,0,0,0,0,0,0,0,0,0,0,0,0,0,0,0,0,0,0,0,0,0,0,0,0,0,0,0,0,0,0,0,0,0,0,0,0,0.0034,0.0034,0,0.0016,0.0016,0.0015,-0.002,-0.002,-0.0021,-0.0021,-0.0071,-0.0071,-0.0072,0,0,0,0,0,0,0,0,0,0,0,0,0,0.0031,0.0031,0.0034,0.0034,0.0034,0.0016,0.0016,0.0015,-0.0019,-0.002,-0.0021,-0.0022,-0.007,-0.0071,-0.0072,0,0,0,0,0,0,0,0,0,0,0,0,0,0.0024,0.0031,0.0034,0.0015,0.0013,0.0016,0.0016,0.0015,-0.0019,-0.002,-0.0021,-0.0022,-0.007,-0.0071,-0.0072,-0.0061,0,0,-0.0076,-0.0076,0,0,0,0,0,0,0,0,0.0024,0.0024,0.0018,0.0016,0.0014,0.0,-0.0004,-0.0012,-0.0019,-0.0008,-0.0021,-0.0022,-0.0049,-0.0051,-0.0054,-0.0063,-0.0065,-0.0076,-0.0076,-0.0077,-0.0077,0,0,0,0,0,0,0,0.0025,0.0024,0.0026,0.0018,0.0016,0.0004,0.0002,-0.0005,-0.0024,-0.0009,-0.0011,-0.0012,-0.005,-0.0052,-0.0055,-0.0066,-0.0076,-0.0077,-0.0077,-0.0078,-0.0083,-0.0083,0,0,0,0,0,0,0.003,0.0025,0.0027,0.0026,0.0018,0.0005,0.0003,0.0005,-0.0023,-0.0028,-0.0011,-0.0013,-0.005,-0.0054,-0.0057,-0.0038,-0.0077,-0.0078,-0.0078,-0.0084,-0.0083,-0.0082,0,0,0,0,0,0,0.003,0.0031,0.0028,0.0025,0.0024,0.0006,0.0009,0.0005,-0.0001,-0.0024,-0.003,-0.0014,-0.0051,-0.0055,-0.0064,-0.004,-0.0078,-0.0079,-0.0084,-0.0083,-0.0083,-0.0004,0,0,0,0,0,0,0.003,0.0031,0.0034,0.0026,0.0024,0.0036,0.001,0.0005,0.0,-0.0003,-0.0029,-0.0034,-0.0052,-0.0062,-0.0065,-0.0042,-0.008,-0.0085,-0.0084,-0.0083,-0.0007,-0.0,0.0005,0,0,0,0,0,0.003,0.0046,0.0034,0.0034,0.0029,0.0037,0.0036,0.0019,0.0001,0.0007,-0.0015,-0.0033,-0.0058,-0.0062,-0.0066,-0.0043,-0.0085,-0.0084,-0.0083,-0.001,-0.0002,0.0005,0,0,0,0,0,0,0.0047,0.0044,0.003,0.0044,0.0041,0.0031,0.0037,0.0022,0.001,0.0004,-0.0025,-0.0031,-0.0031,-0.005,-0.0055,-0.0044,-0.0075,-0.0074,-0.0018,-0.0011,-0.0005,0.0018,-0.0081,0,0,0,0,0,0.0052,0.0062,0.0054,0.0064,0.0064,0.0048,0.0048,0.0038,0.0027,0.002,0.0003,-0.0017,-0.0027,-0.003,-0.0045,-0.0035,-0.0068,-0.0025,-0.0018,-0.0013,0.0002,-0.0028,-0.0023,-0.0078,-0.0079,-0.0079,0,0,0.0061,0.0061,0.0065,0.0068,0.0062,0.0084,0.0046,0.0052,0.007,0.0017,0.0033,0.0003,-0.0022,-0.0013,-0.0014,-0.0026,-0.0018,-0.0011,-0.0006,0.0006,-0.0026,-0.002,-0.0016,-0.0078,-0.0078,-0.0078,0,0,0.0099,0.0084,0.011,0.0114,0.0113,0.0107,0.011,0.0102,0.0098,0.0107,0.0071,0.0056,0.0045,0.0034,0.0026,0.0058,0.0011,0.0049,0.0107,0.0078,0.0083,0.0087,0.0036,0.0035,0.0058,0.0058,0.0058,0,0.011,0.0141,0.0119,0.0148,0.016,0.0122,0.0158,0.0154,0.0145,0.0146,0.0122,0.0099,0.0073,0.0085,0.0095,0.0075,0.004,0.0084,0.0088,0.0091,0.0093,0.0041,0.0038,0.0062,0.0061,0.0061,0.0061,0,0.0172,0.0196,0.0212,0.0237,0.0246,0.0268,0.026,0.0265,0.0247,0.0237,0.0235,0.0195,0.0181,0.017,0.0145,0.0154,0.0116,0.0095,0.0073,0.0104,0.0046,0.0042,0.0067,0.0066,0.0065,0.0064,0,0,0.0204,0.0249,0.0255,0.0282,0.0295,0.031,0.034,0.0355,0.0367,0.0347,0.0362,0.034,0.0299,0.0287,0.0245,0.0225,0.0202,0.0176,0.0172,0.0133,0.0121,0.0067,0.0057,0.0181,0.0181,0.0181,0.0068,0,0.026,0.0336,0.0342,0.0409,0.0445,0.0429,0.0461,0.0464,0.0446,0.0446,0.0403,0.0393,0.0349,0.0333,0.031,0.0222,0.0198,0.0234,0.0091,0.0086,0.0041,0.0053,0.0182,0.0064,0.0063,0.0063,0.0062,0,0.0321,0.0365,0.0445,0.0498,0.0511,0.0544,0.0571,0.0595,0.058,0.0561,0.0539,0.0488,0.0453,0.0407,0.0298,0.0319,0.0237,0.017,0.0163,0.0088,0.0027,0.0028,0.0054,0.0055,0.0055,0.0056,0.0056,0,0.0358,0.0434,0.0499,0.0519,0.0573,0.0605,0.0629,0.0631,0.0644,0.0627,0.0613,0.0563,0.0517,0.0431,0.0281,0.029,0.0142,0.0132,0.0009,0.0003,0.005,0.0047,0.007,0.007,0.007,0.007,0.0071,0,0.0413,0.0465,0.0523,0.0562,0.0631,0.0653,0.0708,0.0715,0.0718,0.072,0.0671,0.0639,0.052,0.0412,0.0298,0.0126,0.0149,0.0022,-0.0023,0.0082,0.0084,0.0045,0.0044,0.0066,0.0067,0.0068,0.0069,0,0.0437,0.0481,0.0556,0.0628,0.0653,0.0699,0.0757,0.078,0.0782,0.0778,0.0772,0.0684,0.0536,0.0395,0.0221,0.013,-0.0016,-0.0081,0.0022,-0.0016,-0.0138,-0.0134,-0.0211,-0.0214,-0.0216,-0.0218,-0.022,0,0.0456,0.0499,0.0592,0.063,0.0665,0.0734,0.0773,0.0807,0.0819,0.0789,0.0775,0.065,0.0566,0.0288,0.0143,-0.0081,-0.0109,-0.0178,-0.0126,-0.0127,-0.0163,-0.0155,-0.0149,-0.0223,-0.0224,-0.0225,-0.0225,0,0.0476,0.0507,0.0561,0.0639,0.0694,0.0758,0.0812,0.0828,0.0845,0.0848,0.0761,0.0628,0.0451,0.0261,0.0074,-0.0079,-0.0123,-0.0202,-0.0197,-0.0148,-0.0143,-0.0174,-0.0165,-0.0233,-0.0232,-0.0231,-0.0231,0,0.047,0.0501,0.0561,0.0626,0.0694,0.0744,0.0793,0.0801,0.082,0.0794,0.0755,0.0591,0.0503,0.0257,0.0086,-0.0075,-0.01,-0.0123,-0.0123,-0.0116,-0.0053,-0.0029,-0.0119,0,0,0,0,0,0.0453,0.0477,0.0537,0.0606,0.0674,0.0716,0.0787,0.0826,0.0849,0.0788,0.0778,0.0614,0.036,0.0257,0.0085,0.0037,-0.0135,-0.0168,-0.0163,-0.0277,-0.0267,-0.0214,0,0,0,0,0,0,0.0432,0.0483,0.0517,0.0566,0.0611,0.0682,0.0735,0.0763,0.0739,0.0743,0.0612,0.0566,0.0321,0.0446,0.0075,0.0027,0.0008,-0.0278,-0.0282,-0.0282,-0.0273,-0.0266,-0.0208,0,0,0,0,0]}]]